Weather History for Eau Claire, WI

Change the Weather History Date:

Saturday, February 2, 2013

  Actual Average Record
Temperature  
Mean Temperature 4 °F 16 °F  
Max Temperature 8 °F 25 °F 47 °F (1944)
Min Temperature 0 °F 6 °F -35 °F (1996)
Degree Days  
Heating Degree Days 61 49  
Month to date heating degree days 130 99  
Since 1 July heating degree days 4673 4843  
Cooling Degree Days 0 0  
Month to date cooling degree days 0 0  
Year to date cooling degree days 0 0  
Moisture  
Dew Point -2 °F    
Average Humidity 72    
Maximum Humidity 88    
Minimum Humidity 55    
Precipitation  
Precipitation T in 0.02 in 0.38 in (2004)
Month to date precipitation 0.04 0.05  
Year to date precipitation 1.12 0.94  
Snow  
Snow T in 0.40 in 6.40 in (2004)
Month to date snowfall 0.7 0.7  
Since 1 July snowfall 27.8 29.7  
Snow Depth 3.00 in    
Sea Level Pressure  
Sea Level Pressure 30.10 in    
Wind  
Wind Speed 2 mph (North)    
Max Wind Speed 7 mph    
Max Gust Speed 9 mph    
Visibility 6 miles    
Events Snow    
T = Trace of Precipitation, MM = Missing Value Source: NWS Daily Summary

Daily Weather History Graph

Daily Weather History Graph

Search for Another Location

Airport:

Trip Planner

Search our weather history database for the weather conditions in past years. The results will help you decide how hot, cold, wet, or windy it might be!

Date:

Astronomy

Feb. 02, 2013 Rise Set
Actual Time 7:23 AM CST 5:16 PM CST
Civil Twilight 6:52 AM CST 5:47 PM CST
Nautical Twilight 6:17 AM CST 6:22 PM CST
Astronomical Twilight 5:43 AM CST 6:56 PM CST
Moon No Moon Rise 10:14 AM CST (2/2)
Length of Visible Light 10h 54m
Length of Day
9h 52m
Waning Gibbous, 59% of the Moon is Illuminated
Feb 2
Waning Gibbous
Feb 3
Last Quarter
Feb 10
New
Feb 17
First Quarter
Feb 25
Full

Hourly Weather History & Observations

Time (CST) Temp. Windchill Dew Point Humidity Pressure Visibility Wind Dir Wind Speed Gust Speed Precip Events Conditions
12:56 AM 3.0 °F - -2.0 °F 80% 30.13 in 2.5 mi Calm Calm - 0.00 in Snow Light Snow
1:56 AM 3.0 °F -4.4 °F -2.0 °F 80% 30.12 in 2.5 mi ENE 3.5 mph - 0.00 in   Overcast
2:56 AM 3.0 °F -6.4 °F -2.0 °F 80% 30.13 in 2.5 mi NE 4.6 mph - N/A   Overcast
3:18 AM 3.2 °F -4.2 °F -2.2 °F 78% 30.05 in 2.5 mi NE 3.5 mph - N/A   Overcast
3:28 AM 3.2 °F -4.2 °F -2.2 °F 78% 30.05 in 2.5 mi NE 3.5 mph - N/A   Overcast
3:56 AM 3.0 °F -4.4 °F -2.0 °F 80% 30.13 in 2.5 mi NNE 3.5 mph - N/A   Overcast
4:56 AM 3.0 °F -6.4 °F -2.0 °F 80% 30.15 in 2.5 mi NNE 4.6 mph - N/A   Overcast
5:18 AM 3.2 °F -6.2 °F -2.2 °F 78% 30.08 in 10.0 mi North 4.6 mph - N/A   Overcast
5:56 AM 1.9 °F -9.2 °F -2.9 °F 80% 30.17 in 10.0 mi North 5.8 mph - N/A   Overcast
6:56 AM 1.9 °F -5.6 °F -4.0 °F 76% 30.18 in 10.0 mi North 3.5 mph - N/A   Overcast
7:56 AM -0.0 °F -9.9 °F -6.0 °F 76% 30.19 in 10.0 mi North 4.6 mph - N/A   Overcast
8:56 AM 1.9 °F -9.2 °F -7.1 °F 66% 30.21 in 10.0 mi North 5.8 mph - N/A   Clear
9:56 AM 3.0 °F - -6.0 °F 66% 30.20 in 10.0 mi Calm Calm - N/A   Clear
10:56 AM 5.0 °F -4.1 °F -7.1 °F 58% 30.21 in 9.0 mi ENE 4.6 mph - 0.00 in   Clear
11:56 AM 5.0 °F - -6.0 °F 61% 30.19 in 10.0 mi Calm Calm - N/A   Clear
12:56 PM 6.1 °F -4.3 °F -6.0 °F 58% 30.17 in 10.0 mi WNW 5.8 mph - N/A   Clear
1:56 PM 7.0 °F 0.1 °F -6.0 °F 55% 30.15 in 10.0 mi WSW 3.5 mph - N/A   Partly Cloudy
2:56 PM 7.0 °F -1.7 °F -5.1 °F 58% 30.14 in 10.0 mi West 4.6 mph - N/A   Overcast
3:56 PM 8.1 °F - -5.1 °F 55% 30.12 in 10.0 mi Calm Calm - N/A   Overcast
4:56 PM 7.0 °F 0.1 °F -5.1 °F 58% 30.12 in 10.0 mi West 3.5 mph - N/A   Clear
6:56 PM 5.0 °F - -4.0 °F 66% 30.10 in 10.0 mi Calm Calm - N/A   Overcast
7:56 PM 5.0 °F - -2.0 °F 73% 30.07 in 10.0 mi Calm Calm - N/A   Overcast
8:56 PM 7.0 °F - 1.0 °F 77% 30.06 in 2.5 mi Calm Calm - 0.00 in Snow Light Snow
9:09 PM 6.8 °F -0.1 °F 1.4 °F 79% 29.99 in 3.0 mi SW 3.5 mph - 0.00 in Snow Light Snow
9:17 PM 6.8 °F - 1.4 °F 79% 29.99 in 2.5 mi Calm Calm - 0.00 in Snow Light Snow
9:34 PM 6.8 °F -0.1 °F 1.4 °F 79% 29.98 in 4.0 mi SSW 3.5 mph - 0.00 in Snow Light Snow
9:56 PM 7.0 °F - 1.9 °F 80% 30.05 in 4.0 mi Calm Calm - 0.00 in Snow Light Snow
10:56 PM 7.0 °F - 3.0 °F 84% 30.02 in 3.0 mi Calm Calm - 0.00 in Snow Light Snow
11:05 PM 6.8 °F - 3.2 °F 85% 29.95 in 2.5 mi Calm Calm - 0.00 in Snow Light Snow
11:14 PM 6.8 °F - 3.2 °F 85% 29.95 in 3.0 mi Calm Calm - 0.00 in Snow Light Snow
11:56 PM 8.1 °F - 3.0 °F 80% 30.01 in 4.0 mi Calm Calm - 0.00 in Snow Light Snow